STARLINK-1792, 46693

Orbit data source: Space-Track

STARLINK-1792, 46693 is a payload satellite owned by SpaceX/Seattle (US) in LEO that was launched on Sun, 18 Oct 2020 UTC via an FALCON 9 launch vehicle from the Air Force Eastern Test Range (AFETR). Payloads include a variety of satellites, spacecraft, and rockets equipped with specific instruments for various scientific and technological missions. These include communications satellites like Starlink; space stations such as the ISS; scientific satellites like the Hubble; Earth observation satellites from companies like Planet Labs, Umbra, and HawkEye 360; GPS; miniature CubeSats for education and research; and military/defense satellites.

Loading next visibility...
STARLINK-1792 details
Identifier
46693, 2020-073Z
Orbit
LEO
Last TLE update10 hours ago
Origin
Flag of USSpaceX/Seattle (US)
ManufacturerSpaceX/Seattle
MissionPartially operational Commercial Communications
Bus & MotorSTARLINK, Unknown motor
Mass260 kg wet, ~248 kg dry
Launch date (UTC)
2020-10-18 (4 years ago)
Launch vehicle
FALCON 9
Launch site
Air Force Eastern Test Range (AFETR)
Object type
Payload
Rocket body
Debris
Shape & HBRBox + 1 Pan, 8.86 m
Radar Cross Section13.562 m², Large (>1 m²)

Expand to show TLE details & history

TLE from 10 hours ago
0 STARLINK-1792
1 46693U 20073Z   24339.77436799  .00067063  00000-0  27654-2 0  9991
2 46693  53.0405 138.5635 0003314 157.0765 203.0380 15.23463132227917
Epoch: 2024-12-04T18:35Z
Definitive object data (Epoch: 2024-12-04T18:35:05.394Z)
Latitude0.00001°
Longitude145.72634°
Altitude498.385 km
Speed7.615 km/s
True Right ascension09h 14m 15s
True Declination0° 00' 00"
Sunlit
Object was in daylight at TLE epoch
Visualization TLE readout
Latitude20.8035°
Longitude160.40627°
Altitude497.292 km
Speed7.618 km/s
Apparent Right ascension11h 52m 18s
Apparent Declination-9° 24' 11"
Sunlit
Object is in daylight
Visualization observer readout
Local Sidereal Time02:06:07
Azimuth53.472° ENE
Elevation-47.404°
Doppler factor1
Orbital elements
Apogee altitude497.957 km
Perigee altitude493.401 km
Semi-major axis6,873.816 km
Eccentricity0.0003314
Inclination53.0405°
RAAN138.5635°
Arg. of periapsis157.0765°
True anomaly203.02314°
Mean anomaly203.038°
Eccentric anomaly203.03057°
Mean motion3.80843 °/min
BSTAR0.0027654
Orbital period94.53 mins
Loading maneuver chart data...
Loading historical data...
Loading historical data...
Loading historical data...
Loading historical data...
Loading historical data...
Loading historical data...
Loading historical data...

STARLINK-1792 Visibility forecast

Observer location: undefined°, undefined

Span
Click to sort rows by Start time (UTC) header in descending order
Start Az.
Max El. time (UTC)
Max El. Az.
Max El.
End time (UTC)
End Az.
5 mins2024-12-05 13:40:46.550Z236.174° WSW2024-12-05 13:42:46.550Z289.263° WNW44.296°2024-12-05 13:45:46.550Z47.039° ENE
5 mins2024-12-05 20:17:46.550Z309.297° NW2024-12-05 20:19:46.550Z183.523° SSW44.984°2024-12-05 20:22:46.550Z131.509° SE
|